THOR AGENA B DEB, 2153

Orbit data source: Space-Track

THOR AGENA B DEB, 2153 is space debris in LEO originally from a launch on Mon, 29 Nov 1965 UTC launched from the Air Force Western Test Range (AFWTR). Debris objects in space refer to the collection of defunct objects orbiting the Earth. Examples of debris include non-operational satellites, rocket bodies, and fragments generated from explosions, collisions, or faulty payload assembly.

Loading next visibility...
Identifier
2153, 1965-098J
Orbit
LEO
Country
Flag of USUS
Related business
Manufacturer
Unknown
Mission
Spacecraft
Bus & Motor
Unknown
Mass
~1 kg wet, ~1 kg dry
Launch date (UTC)
1965-11-29 (60 years ago)
Launch vehicle
Unknown
Launch site
Air Force Western Test Range (AFWTR)
Object type
Payload
Rocket body
Debris
Shape & HBR
Ann Cyl, 0.1 m
Radar Cross Section
0.031 m², Small (<0.1 m²)

Expand to show TLE details & history
Last TLE update: 21 hours ago

TLE from 21 hours ago
0 THOR AGENA B DEB
1 02153U 65098J   25242.47812009  .00001055  00000-0  33971-3 0  9992
2 02153  79.7484 326.3155 1282210 286.3931  74.5804 12.38587528651037
Epoch: 2025-08-30T11:28Z
TLE epoch observation values (Epoch: 2025-08-30T11:28:29.575Z)
Latitude
15.32853°
Longitude
178.10786°
Altitude
1,371.181 km
Speed
7.239 km/s
True Right ascension
21h 56m 34s
True Declination
15° 14' 53"
Sunlit
Object was in full shadow at epoch
Visualization orbit readout
Latitude
Unknown
Longitude
Unknown
Altitude
Unknown
Speed
Unknown
Apparent Right ascension
Unknown
Apparent Declination
Unknown
Sunlit
N/A
Visualization observer readout
Local Sidereal Time
00:09:55
Azimuth
Unknown
Elevation
Unknown
Doppler factor
Unknown
Orbital elements
Apogee altitude
2,521.439 km
Perigee altitude
498.586 km
Semi-major axis
7,888.15 km
Eccentricity
0.12822
Inclination
79.7484°
RAAN
326.3155°
Arg. of periapsis
286.3931°
True anomaly
89.21239°
Mean anomaly
74.5804°
Eccentric anomaly
81.85278°
Mean motion
3.09799 °/min
Orbital period
116.2 mins
BSTAR
0.00033971
Loading maneuver chart data...
Computing Atmospheric mass density...
Loading historical data...
Loading historical data...
Loading historical data...
Loading historical data...
Loading historical data...
Loading historical data...
Loading historical data...

Documentation

Showing up to 5 results
|